Location: Unspecified
(51.5147°N, 7.4673°E)
Time: 06:05:34
(UTC+01:00)

A-11 Canister half - Pass Details

Date: 25 February 2026
Orbit: 1524 x 1683 km, 47.3° (Epoch: 14 March)

Event Time Altitude Azimuth Distance (km) Brightness Sun altitude
Rises 19:39:50 0° 280° (W) 4,700 13.4 -15.7°
Reaches altitude 10° 19:42:58 10° 276° (W) 3,706 12.4 -16.2°
Maximum altitude 19:51:54 54° 203° (SSW) 1,799 9.4 -17.6°
Enters shadow 19:58:53 18° 134° (SE) 3,112 10.1 -18.7°
